Chicopee, MA

3:13 AM EDT on April 25, 2017 (GMT -0400)
Westover Air Reserve Base / Metropolitan Airport

Weather History for KCEF - August, 2012

Change the Weather History Date:

Friday, August 3, 2012

  Actual Average Record
Temperature  
Mean Temperature 80 °F -  
Max Temperature 93 °F 80 °F 93 °F (2006)
Min Temperature 66 °F 59 °F 53 °F (2011)
Cooling Degree Days 14    
Growing Degree Days 30 (Base 50)    
Moisture  
Dew Point 69 °F    
Average Humidity 90    
Maximum Humidity 100    
Minimum Humidity 38    
Precipitation  
Precipitation 0.00 in - - ()
Sea Level Pressure  
Sea Level Pressure 29.95 in    
Wind  
Wind Speed 2 mph (South)    
Max Wind Speed 14 mph    
Max Gust Speed -    
Visibility 4 miles    
Events Fog    
Averages and records for this station are not official NWS values.
T = Trace of Precipitation, MM = Missing Value Source: NWS Daily Summary

Daily Weather History Graph

Daily Weather History Graph

Search for Another Location

Airport or City:

Trip Planner

Search our weather history database for the weather conditions in past years. The results will help you decide how hot, cold, wet, or windy it might be!

Date:

Astronomy

Aug. 03, 2012 Rise Set
Actual Time 5:45 AM EDT 8:06 PM EDT
Civil Twilight 5:14 AM EDT 8:37 PM EDT
Nautical Twilight 4:35 AM EDT 9:16 PM EDT
Astronomical Twilight 3:51 AM EDT 9:59 PM EDT
Moon 8:39 PM EDT (8/3) 7:28 AM EDT (8/3)
Length of Visible Light 15h 23m
Length of Day
14h 20m
Full, 97% of the Moon is Illuminated
Aug 3
Full
Aug 9
Last Quarter
Aug 17
New
Aug 24
First Quarter
Aug 31
Full

Hourly Weather History & Observations

Time (EDT) Temp. Heat Index Dew Point Humidity Pressure Visibility Wind Dir Wind Speed Gust Speed Precip Events Conditions
12:55 AM 73.2 °F - 69.4 °F 88% 29.91 in 10.0 mi SSE 3.5 mph - N/A   Clear
1:55 AM 72.3 °F - 70.2 °F 93% 29.92 in 10.0 mi Variable 3.5 mph - N/A   Clear
2:31 AM 71.6 °F - 69.8 °F 94% 29.92 in 10.0 mi SSE 3.5 mph - N/A   Light Drizzle
2:38 AM 71.6 °F - 69.8 °F 94% 29.92 in 9.0 mi SSE 3.5 mph - N/A   Clear
2:55 AM 71.4 °F - 70.5 °F 97% 29.92 in 9.0 mi Variable 3.5 mph - 0.00 in   Clear
3:51 AM 69.8 °F - 69.8 °F 100% 29.92 in 2.5 mi Calm Calm - N/A   Clear
3:52 AM 69.8 °F - 69.8 °F 100% 29.92 in 2.0 mi Calm Calm - N/A   Clear
3:53 AM 69.8 °F - 69.8 °F 100% 29.92 in 1.5 mi Calm Calm - N/A   Clear
3:55 AM 69.6 °F - 68.9 °F 98% 29.92 in 1.2 mi Calm Calm - N/A   Clear
3:57 AM 69.8 °F - 68.0 °F 94% 29.92 in 1.0 mi Calm Calm - N/A   Clear
4:07 AM 68.0 °F - 68.0 °F 100% 29.92 in 1.2 mi Calm Calm - N/A   Clear
4:11 AM 69.8 °F - 69.8 °F 100% 29.92 in 1.5 mi Calm Calm - N/A   Clear
4:13 AM 69.8 °F - 69.8 °F 100% 29.92 in 2.0 mi Calm Calm - N/A   Clear
4:14 AM 69.8 °F - 69.8 °F 100% 29.92 in 2.5 mi Calm Calm - N/A   Clear
4:15 AM 69.8 °F - 69.8 °F 100% 29.92 in 3.0 mi Calm Calm - N/A   Clear
4:30 AM 69.8 °F - 68.0 °F 94% 29.93 in 2.5 mi Calm Calm - N/A   Clear
4:31 AM 69.8 °F - 68.0 °F 94% 29.93 in 2.0 mi Calm Calm - N/A   Clear
4:33 AM 69.8 °F - 69.8 °F 100% 29.93 in 1.8 mi Calm Calm - N/A   Clear
4:35 AM 69.8 °F - 68.0 °F 94% 29.92 in 1.5 mi Calm Calm - N/A   Clear
4:36 AM 68.0 °F - 68.0 °F 100% 29.92 in 1.2 mi Calm Calm - N/A   Clear
4:37 AM 68.0 °F - 68.0 °F 100% 29.92 in 1.0 mi Calm Calm - N/A   Clear
4:42 AM 66.2 °F - 66.2 °F 100% 29.92 in 0.8 mi Calm Calm - N/A   Clear
4:43 AM 66.2 °F - 66.2 °F 100% 29.92 in 0.5 mi Calm Calm - N/A Fog Fog
4:44 AM 66.2 °F - 66.2 °F 100% 29.92 in 0.5 mi Calm Calm - N/A Fog Fog
4:46 AM 66.2 °F - 66.2 °F 100% 29.92 in 0.2 mi Calm Calm - N/A Fog Fog
4:49 AM 68.0 °F - 68.0 °F 100% 29.93 in 0.2 mi Calm Calm - N/A Fog Fog
4:50 AM 68.0 °F - 68.0 °F 100% 29.92 in 0.2 mi Calm Calm - N/A Fog Fog
4:52 AM 68.0 °F - 68.0 °F 100% 29.93 in 0.2 mi Calm Calm - N/A Fog Fog
4:55 AM 67.5 °F - 67.1 °F 99% 29.93 in 0.5 mi Calm Calm - N/A Fog Fog
4:59 AM 68.0 °F - 66.2 °F 94% 29.93 in 0.8 mi Calm Calm - N/A   Mist
5:01 AM 68.0 °F - 68.0 °F 100% 29.93 in 0.8 mi Calm Calm - N/A   Mist
5:02 AM 68.0 °F - 68.0 °F 100% 29.93 in 0.8 mi Calm Calm - N/A   Mist
5:03 AM 68.0 °F - 68.0 °F 100% 29.93 in 1.0 mi Calm Calm - N/A   Mist
5:05 AM 68.0 °F - 68.0 °F 100% 29.93 in 1.2 mi Calm Calm - N/A   Mostly Cloudy
5:06 AM 68.0 °F - 68.0 °F 100% 29.93 in 1.5 mi Calm Calm - N/A   Mostly Cloudy
5:07 AM 68.0 °F - 68.0 °F 100% 29.93 in 1.8 mi Calm Calm - N/A   Mostly Cloudy
5:10 AM 66.2 °F - 66.2 °F 100% 29.93 in 2.0 mi Calm Calm - N/A   Mostly Cloudy
5:11 AM 66.2 °F - 66.2 °F 100% 29.93 in 1.8 mi Calm Calm - N/A   Mostly Cloudy
5:13 AM 66.2 °F - 66.2 °F 100% 29.93 in 1.5 mi Calm Calm - N/A   Mostly Cloudy
5:18 AM 68.0 °F - 68.0 °F 100% 29.93 in 1.8 mi Calm Calm - N/A   Mostly Cloudy
5:19 AM 68.0 °F - 68.0 °F 100% 29.93 in 2.0 mi Calm Calm - N/A   Overcast
5:21 AM 68.0 °F - 68.0 °F 100% 29.93 in 2.5 mi Calm Calm - N/A   Overcast
5:22 AM 68.0 °F - 68.0 °F 100% 29.93 in 3.0 mi Calm Calm - N/A   Overcast
5:37 AM 69.8 °F - 69.8 °F 100% 29.94 in 2.5 mi Calm Calm - N/A   Overcast
5:42 AM 69.8 °F - 69.8 °F 100% 29.94 in 2.5 mi Calm Calm - N/A   Overcast
5:43 AM 69.8 °F - 69.8 °F 100% 29.94 in 2.0 mi Calm Calm - N/A   Overcast
5:47 AM 69.8 °F - 69.8 °F 100% 29.94 in 2.5 mi Calm Calm - N/A   Overcast
5:50 AM 69.8 °F - 69.8 °F 100% 29.95 in 3.0 mi Calm Calm - N/A   Overcast
5:55 AM 69.8 °F - 69.6 °F 99% 29.95 in 3.0 mi Calm Calm - N/A   Overcast
6:00 AM 69.8 °F - 69.8 °F 100% 29.95 in 2.5 mi Calm Calm - N/A   Overcast
6:04 AM 69.8 °F - 69.8 °F 100% 29.95 in 2.0 mi Calm Calm - N/A   Overcast
6:10 AM 69.8 °F - 69.8 °F 100% 29.95 in 2.5 mi Calm Calm - N/A   Mostly Cloudy
6:14 AM 69.8 °F - 69.8 °F 100% 29.95 in 2.5 mi Calm Calm - N/A   Mostly Cloudy
6:16 AM 69.8 °F - 69.8 °F 100% 29.95 in 3.0 mi Calm Calm - N/A   Scattered Clouds
6:25 AM 69.8 °F - 69.8 °F 100% 29.96 in 3.0 mi Calm Calm - N/A   Mostly Cloudy
6:41 AM 71.6 °F - 69.8 °F 94% 29.96 in 4.0 mi Calm Calm - N/A   Mostly Cloudy
6:50 AM 71.6 °F - 69.8 °F 94% 29.96 in 4.0 mi Calm Calm - N/A   Mostly Cloudy
6:55 AM 71.1 °F - 70.9 °F 99% 29.96 in 4.0 mi Calm Calm - N/A   Mostly Cloudy
6:58 AM 71.6 °F - 71.6 °F 100% 29.96 in 4.0 mi Calm Calm - N/A   Scattered Clouds
7:46 AM 73.4 °F - 73.4 °F 100% 29.98 in 10.0 mi SSW 3.5 mph - N/A   Partly Cloudy
7:55 AM 74.1 °F - 72.3 °F 94% 29.98 in 10.0 mi SSW 3.5 mph - N/A   Partly Cloudy
8:55 AM 78.8 °F - 69.8 °F 74% 29.98 in 10.0 mi South 4.6 mph - N/A   Mostly Cloudy
9:55 AM 80.6 °F 83.2 °F 68.0 °F 65% 29.99 in 10.0 mi Calm Calm - N/A   Mostly Cloudy
10:55 AM 84.2 °F 87.3 °F 68.0 °F 58% 29.99 in 10.0 mi South 5.8 mph - N/A   Scattered Clouds
11:55 AM 86.0 °F 89.4 °F 68.0 °F 55% 30.00 in 10.0 mi Variable 4.6 mph - N/A   Mostly Cloudy
12:55 PM 89.6 °F 93.4 °F 68.0 °F 49% 30.00 in 10.0 mi South 5.8 mph - N/A   Scattered Clouds
1:55 PM 91.4 °F 95.4 °F 68.0 °F 46% 29.99 in 10.0 mi SW 13.8 mph - N/A   Scattered Clouds
2:55 PM 93.2 °F 96.2 °F 66.2 °F 41% 29.99 in 10.0 mi SSW 10.4 mph - N/A   Scattered Clouds
3:55 PM 93.2 °F 96.2 °F 66.2 °F 41% 29.99 in 10.0 mi SSW 9.2 mph - N/A   Partly Cloudy
4:55 PM 93.2 °F 94.9 °F 64.4 °F 38% 29.99 in 10.0 mi SSW 11.5 mph - N/A   Scattered Clouds
5:55 PM 92.7 °F 94.4 °F 64.2 °F 39% 29.99 in 10.0 mi SSW 12.7 mph - N/A   Clear
6:55 PM 88.9 °F 91.8 °F 66.7 °F 48% 30.00 in 10.0 mi SSW 10.4 mph - N/A   Clear
7:55 PM 85.6 °F 90.4 °F 70.3 °F 60% 30.02 in 10.0 mi SSW 12.7 mph - N/A   Clear
8:55 PM 82.9 °F 87.7 °F 71.6 °F 68% 30.04 in 10.0 mi SSW 9.2 mph - N/A   Clear
9:55 PM 80.4 °F 84.7 °F 72.5 °F 77% 30.06 in 10.0 mi South 6.9 mph - N/A   Clear
10:55 PM 78.6 °F - 72.5 °F 81% 30.08 in 10.0 mi South 4.6 mph - N/A   Clear
11:55 PM 76.6 °F - 73.0 °F 89% 30.10 in 10.0 mi South 4.6 mph - N/A   Clear